GORIZONT 8 [-]

Last updated on Jan. 23, 2021, 7:21 a.m. UTC

1 14532U 83118A   21022.03998125 -.00000049  00000-0  00000-0 0  9994
2 14532  13.1829 330.0093 0027461 130.3471  75.2380  0.98269282101124
UTC
Height (km)
Latitude
Longitude
Inclination
Orbital Period
UTC large
Height (km)
Speed (km/s)
/
Latitude / Longitude
Inclination (degrees)
Orbital Period (minutes)
Azimuth
Elevation
Range (km)
Doppler Factor
iOS Compass Heading
iOS Angle

Next 30 passes for location: Hong Kong

Rise time Rise Azimuth (degrees) Set time Set Azimuth (degrees) Duration Max altitude (degrees)

No matching passes for this satellites